[[{"header":{"parameterUnit":"m.s-1","parameterCategory":1,"la1":30.2991,"la2":30.254,"lo1":-89.0895,"lo2":-89.0444,"dy":0.0017,"dx":0.0017,"nx":28,"ny":28,"refTime":"2023-08-18T09:00:00:Z","depth":0,"parameterNumber":2,"parameterNumberName":"U-component_of_WINDS"},"data":[0,0,0,0,0,0,0,0,0,0,0,0,0,0,0,0,0,0,0,0,0,0,0,0,0,0,0,0,0,0,0,0,0,0,0,0,0,0,0,0,0,0,0,0,0,0,0,0,0,0,0,0,0,0,0,0,0,0,1.7932,1.7933,0,1.8,1.8001,1.8002,1.7973,1.7971,1.797,1.7968,1.8036,1.8039,1.8042,0,0,0,0,0,0,0,0,0,0,0,0,0,1.7774,1.7777,1.7932,1.7933,1.7934,1.8,1.8001,1.8002,1.7973,1.7971,1.7969,1.7968,1.8035,1.8039,1.8042,0,0,0,0,0,0,0,0,0,0,0,0,0,1.7842,1.7778,1.7932,1.7928,1.7928,1.8,1.8001,1.8002,1.7974,1.7971,1.7969,1.7967,1.8033,1.8038,1.8043,1.8122,0,0,1.8058,1.806,0,0,0,0,0,0,0,0,1.7838,1.7848,1.7927,1.7928,1.7929,1.7976,1.797,1.8042,1.7974,1.7956,1.7968,1.7965,1.8018,1.8024,1.8042,1.8126,1.8128,1.8059,1.8062,1.8064,1.8065,0,0,0,0,0,0,0,1.7834,1.7845,1.7959,1.7929,1.7929,1.7921,1.7928,1.7983,1.8,1.7958,1.7956,1.7964,1.8017,1.8037,1.8043,1.8129,1.8058,1.8063,1.8066,1.8068,1.8278,1.8281,0,0,0,0,0,0,1.7829,1.7841,1.7957,1.7961,1.7877,1.7926,1.7934,1.7963,1.7999,1.8002,1.7966,1.7963,1.803,1.8037,1.8045,1.8138,1.8064,1.8068,1.8071,1.8276,1.8279,1.8282,0,0,0,0,0,0,1.7826,1.784,1.7954,1.7901,1.7914,1.7931,1.7964,1.7966,1.7985,1.8006,1.8008,1.7984,1.8028,1.8038,1.8103,1.814,1.8071,1.8075,1.8273,1.8277,1.828,1.8326,0,0,0,0,0,0,1.7822,1.7839,1.787,1.7902,1.7917,1.8012,1.7967,1.7969,1.7994,1.799,1.8022,1.8025,1.8027,1.8096,1.8108,1.8146,1.8079,1.8269,1.8274,1.8279,1.8321,1.8331,1.8339,0,0,0,0,0,1.7816,1.7881,1.7872,1.7886,1.7957,1.8014,1.8023,1.8024,1.7997,1.8028,1.8041,1.8024,1.8134,1.8102,1.8116,1.8156,1.8267,1.8273,1.8279,1.8317,1.8329,1.8339,0,0,0,0,0,0,1.7853,1.7885,1.7875,1.7952,1.7981,1.8009,1.8048,1.8037,1.8073,1.8067,1.8067,1.8074,1.814,1.8155,1.8119,1.8233,1.8196,1.8205,1.8221,1.8232,1.8241,1.8235,1.8083,0,0,0,0,0,1.787,1.7915,1.794,1.8005,1.8019,1.8031,1.8056,1.8054,1.8083,1.8095,1.8113,1.8141,1.8181,1.8208,1.8247,1.8323,1.8328,1.8357,1.8366,1.8374,1.8381,1.842,1.8432,1.8301,1.8301,1.8301,0,0,1.7906,1.7929,1.7957,1.8013,1.8034,1.8079,1.8042,1.8091,1.8123,1.8102,1.8163,1.8178,1.8208,1.8279,1.8311,1.8293,1.8418,1.8381,1.8387,1.839,1.8427,1.8439,1.845,1.8305,1.8304,1.8304,0,0,1.7993,1.8016,1.8071,1.8094,1.8127,1.8134,1.8147,1.8177,1.8186,1.8247,1.8232,1.827,1.8341,1.8362,1.8383,1.8476,1.8462,1.8489,1.8536,1.8574,1.8584,1.8593,1.8624,1.8635,1.8496,1.8497,1.8497,0,1.8033,1.81,1.8101,1.8151,1.8175,1.8158,1.8213,1.8234,1.8279,1.8295,1.8275,1.8361,1.8381,1.8455,1.8477,1.8495,1.8509,1.8485,1.8582,1.8592,1.86,1.8629,1.8641,1.8499,1.8499,1.8499,1.8499,0,1.8146,1.8193,1.8233,1.8276,1.8305,1.8357,1.8364,1.8393,1.8388,1.8397,1.8458,1.8482,1.8524,1.8541,1.8538,1.8614,1.8602,1.8582,1.8545,1.8615,1.8643,1.8654,1.8504,1.8503,1.8502,1.8501,0,0,1.8258,1.83,1.8314,1.8332,1.8367,1.8403,1.8453,1.8494,1.8517,1.8548,1.8589,1.8648,1.863,1.8653,1.8651,1.8685,1.8754,1.8661,1.8662,1.8675,1.8836,1.8849,1.8862,1.8745,1.8748,1.8749,1.8833,0,1.8346,1.8435,1.8436,1.8517,1.8559,1.8543,1.8586,1.8612,1.8621,1.8656,1.8666,1.8707,1.8681,1.8695,1.8728,1.8739,1.8786,1.8733,1.8781,1.8783,1.8772,1.8877,1.8891,1.8969,1.8844,1.8846,1.8847,0,1.846,1.8494,1.8579,1.8606,1.8623,1.8662,1.8699,1.8734,1.8761,1.8765,1.879,1.8783,1.8833,1.8795,1.8862,1.8826,1.8846,1.8854,1.8857,1.886,1.8818,1.888,1.8994,1.9005,1.8864,1.8863,1.8862,0,1.853,1.8597,1.8656,1.8672,1.8705,1.8733,1.8748,1.8773,1.8796,1.8828,1.8843,1.888,1.89,1.8928,1.8931,1.8904,1.8997,1.8961,1.9,1.9,1.9019,1.9017,1.9135,1.9036,1.9035,1.9035,1.9035,0,1.8626,1.8678,1.8687,1.8723,1.878,1.8781,1.8837,1.8849,1.8871,1.8908,1.8897,1.8932,1.8934,1.8969,1.8971,1.9025,1.9034,1.9038,1.9037,1.9037,1.9037,1.9049,1.9043,1.9038,1.9038,1.9037,1.9036,0,1.8713,1.8722,1.8784,1.881,1.8818,1.8859,1.888,1.8913,1.8921,1.8968,1.8979,1.8991,1.9031,1.9037,1.9085,1.9086,1.9149,1.9144,1.914,1.9138,1.9176,1.9172,1.9304,1.9321,1.9213,1.9214,1.9215,0,1.8773,1.8813,1.8843,1.8867,1.8883,1.8922,1.8946,1.8948,1.8973,1.9006,1.9035,1.9074,1.9106,1.9171,1.9183,1.9219,1.9213,1.9257,1.9218,1.9216,1.921,1.9207,1.921,1.9264,1.9265,1.9266,1.9267,0,1.8878,1.888,1.8915,1.8952,1.898,1.9009,1.9036,1.9056,1.9061,1.909,1.9131,1.9155,1.9203,1.9241,1.9276,1.929,1.9278,1.9279,1.9289,1.9289,1.9284,1.9284,1.9158,1.9275,1.9275,1.9274,1.9273,1.9273,1.8952,1.8985,1.9011,1.905,1.907,1.9095,1.9127,1.9139,1.9173,1.9212,1.9211,1.9256,1.928,1.9325,1.9342,1.9376,1.9361,1.9377,1.9381,1.9384,1.9386,1.928,1.9382,1.9382,1.9382,1.9382,1.9382,0,1.9053,1.9069,1.9105,1.9143,1.9173,1.916,1.9189,1.9214,1.9254,1.9278,1.9309,1.9355,1.9391,1.9406,1.9442,1.9466,1.9461,1.9475,1.9472,1.9475,1.9399,1.9385,1.9478,1.9478,1.9478,1.9478,1.9478,1.9478,1.911,1.9164,1.9169,1.9233,1.9248,1.9292,1.9309,1.9331,1.935,1.9402,1.9432,1.9442,1.9461,1.9498,1.953,1.9534,1.9546,1.9562,1.9562,1.949,1.9481,1.9471,1.9458,1.9565,1.9565,1.9635,1.9636,1.9636]},{"header":{"parameterUnit":"m.s-1","parameterCategory":1,"la1":30.2991,"la2":30.254,"lo1":-89.0895,"lo2":-89.0444,"dy":0.0017,"dx":0.0017,"nx":28,"ny":28,"refTime":"2023-08-18T09:00:00:Z","depth":0,"parameterNumber":3,"parameterNumberName":"V-component_of_WINDS"},"data":[0,0,0,0,0,0,0,0,0,0,0,0,0,0,0,0,0,0,0,0,0,0,0,0,0,0,0,0,0,0,0,0,0,0,0,0,0,0,0,0,0,0,0,0,0,0,0,0,0,0,0,0,0,0,0,0,0,0,3.9837,3.9837,0,3.983,3.983,3.983,3.9702,3.9699,3.9695,3.9692,3.9686,3.9689,3.9692,0,0,0,0,0,0,0,0,0,0,0,0,0,3.9738,3.9741,3.9837,3.9837,3.9837,3.983,3.983,3.983,3.9703,3.9699,3.9695,3.9691,3.9685,3.9689,3.9692,0,0,0,0,0,0,0,0,0,0,0,0,0,3.9762,3.9742,3.9837,3.9773,3.9767,3.983,3.983,3.983,3.9703,3.9699,3.9694,3.9689,3.9684,3.9688,3.9693,3.9818,0,0,3.9706,3.9708,0,0,0,0,0,0,0,0,3.976,3.9765,3.9782,3.9777,3.9771,3.9762,3.9793,3.9826,3.9705,3.9728,3.9692,3.9687,3.9715,3.9717,3.9726,3.9818,3.9817,3.9706,3.9709,3.9711,3.9712,0,0,0,0,0,0,0,3.9759,3.9765,3.9834,3.9783,3.9776,3.9743,3.9741,3.9799,3.9749,3.9725,3.9716,3.9717,3.9711,3.9723,3.9725,3.9817,3.9706,3.971,3.9713,3.9714,4.0007,4.0012,0,0,0,0,0,0,3.9766,3.9764,3.9835,3.9834,3.9753,3.9749,3.9747,3.977,3.9748,3.974,3.9721,3.9711,3.9718,3.972,3.9725,3.9867,3.9711,3.9715,3.9717,4.0002,4.0008,4.0014,0,0,0,0,0,0,3.9765,3.9774,3.9835,3.9797,3.9802,3.9756,3.9783,3.9772,3.9783,3.9745,3.9735,3.9742,3.9714,3.9719,3.9795,3.9865,3.9717,3.9721,3.9996,4.0004,4.0011,4.0155,0,0,0,0,0,0,3.9762,3.9774,3.9822,3.9799,3.9805,3.9906,3.9787,3.9776,3.9791,3.9778,3.9762,3.9754,3.971,3.9789,3.9799,3.9868,3.9724,3.9989,3.9999,4.0009,4.0144,4.0166,4.0186,0,0,0,0,0,3.9759,3.9864,3.9825,3.9834,3.9863,3.991,3.9914,3.986,3.9797,3.9844,3.9819,3.9755,3.9856,3.9798,3.9808,3.988,3.9985,3.9997,4.0008,4.0134,4.0162,4.0186,0,0,0,0,0,0,3.9897,3.9859,3.9816,3.9916,3.9917,3.9889,3.9946,3.9892,3.9912,3.9899,3.9832,3.983,3.9915,3.9905,3.9841,3.9998,3.9909,3.9923,4.0001,4.0028,4.0049,4.0048,3.9728,0,0,0,0,0,3.9939,3.998,3.9945,4.0037,4.0039,3.9993,4.0012,3.997,3.9969,3.9969,3.995,3.9951,3.9982,4.0005,4.0032,4.0142,4.0135,4.0196,4.0218,4.0235,4.0248,4.0302,4.0328,4.0052,4.0052,4.0052,0,0,4.0026,4.0011,4.0041,4.0064,4.006,4.0103,3.9995,4.0046,4.0077,3.9977,4.0046,4.0033,4.003,4.0122,4.0162,4.0117,4.0322,4.025,4.0264,4.0267,4.0317,4.0343,4.0366,4.006,4.0059,4.0057,0,0,4.0206,4.02,4.0274,4.0271,4.0266,4.0234,4.0252,4.0231,4.0218,4.0287,4.0211,4.0248,4.0305,4.0304,4.0312,4.0489,4.043,4.05,4.0611,4.0665,4.0686,4.0705,4.0766,4.0789,4.0513,4.0514,4.0514,0,4.0315,4.0378,4.0319,4.0374,4.0385,4.0295,4.0368,4.0369,4.0374,4.0383,4.0332,4.0399,4.0391,4.0481,4.0524,4.0534,4.0551,4.0501,4.0688,4.0706,4.0723,4.078,4.0804,4.0522,4.0521,4.052,4.0519,0,4.051,4.0554,4.0615,4.0619,4.0637,4.0702,4.0651,4.0677,4.0634,4.0607,4.0677,4.0664,4.0686,4.0704,4.0664,4.0788,4.0759,4.07,4.0608,4.0759,4.0811,4.0833,4.0534,4.0531,4.0528,4.0526,0,0,4.0777,4.0746,4.0769,4.0769,4.0755,4.0788,4.0848,4.0868,4.089,4.0896,4.0942,4.0992,4.0935,4.0944,4.0902,4.095,4.1088,4.0883,4.0882,4.0919,4.1221,4.1264,4.1291,4.1049,4.1053,4.1056,4.122,0,4.0949,4.1047,4.0995,4.11,4.1138,4.1053,4.1104,4.1102,4.1078,4.1107,4.1081,4.1116,4.104,4.1044,4.1088,4.1062,4.1147,4.105,4.109,4.1093,4.1091,4.1318,4.1365,4.152,4.124,4.1244,4.1246,0,4.1162,4.1175,4.1284,4.126,4.1274,4.1321,4.1333,4.1363,4.1357,4.1336,4.1345,4.1292,4.1347,4.1258,4.1333,4.1268,4.1281,4.1271,4.1276,4.1276,4.1177,4.1322,4.1569,4.1591,4.1279,4.1276,4.1274,0,4.1342,4.1387,4.1456,4.1459,4.1434,4.1469,4.146,4.1449,4.1464,4.1475,4.1483,4.1502,4.1512,4.1527,4.148,4.142,4.156,4.1468,4.1543,4.1544,4.1575,4.1573,4.1825,4.1588,4.1588,4.1588,4.1587,0,4.1537,4.1607,4.1536,4.1579,4.1653,4.1592,4.1668,4.165,4.1641,4.1678,4.1607,4.1643,4.1579,4.1609,4.1573,4.1638,4.1644,4.1628,4.1617,4.1633,4.1635,4.164,4.1627,4.1594,4.1592,4.1591,4.159,0,4.1751,4.1707,4.1776,4.1746,4.174,4.1796,4.177,4.1808,4.1779,4.1827,4.1834,4.1789,4.1821,4.1775,4.1802,4.1777,4.1867,4.1841,4.1869,4.186,4.1937,4.193,4.2199,4.223,4.1976,4.1979,4.1981,0,4.1877,4.1928,4.1902,4.1921,4.1916,4.1948,4.1962,4.1903,4.192,4.1916,4.1955,4.198,4.1996,4.2051,4.202,4.204,4.2013,4.2105,4.2015,4.2029,4.2011,4.2007,4.2011,4.2123,4.2127,4.2129,4.2131,0,4.2105,4.208,4.2102,4.2116,4.2133,4.2142,4.2145,4.2165,4.2104,4.2126,4.2157,4.217,4.2196,4.2221,4.2233,4.2224,4.2167,4.216,4.2178,4.2194,4.2206,4.2198,4.1916,4.2154,4.2151,4.215,4.2148,4.2148,4.2277,4.2316,4.2303,4.2329,4.2325,4.2329,4.2362,4.2337,4.2361,4.2376,4.2341,4.2379,4.237,4.238,4.2377,4.2406,4.2366,4.2392,4.2399,4.2406,4.2416,4.2204,4.2409,4.2408,4.2407,4.2407,4.2406,0,4.2498,4.2485,4.251,4.2515,4.2535,4.2479,4.2479,4.25,4.2534,4.253,4.2548,4.2582,4.2605,4.2577,4.2595,4.2624,4.2598,4.263,4.2626,4.2625,4.2453,4.2434,4.2651,4.265,4.265,4.265,4.265,4.265,4.2616,4.2679,4.2652,4.2712,4.2698,4.2734,4.2739,4.2742,4.2738,4.2778,4.2797,4.2777,4.2763,4.278,4.2799,4.2789,4.2799,4.284,4.2822,4.2661,4.2637,4.2614,4.2596,4.2843,4.2843,4.299,4.2992,4.2993]}]]